Harrisburg, IL

10:04 AM CST on November 12, 2019 (GMT -0600)
Harrisburg-Raleigh

Weather History for KHSB - October, 2019

Change the Weather History Date:

Thursday, October 17, 2019

  Actual Average (WUND) Record (WUND)
Temperature  
Mean Temperature 48 °F -  
Max Temperature 60 °F - - (-1)
Min Temperature 35 °F - - (-1)
Degree Days  
Heating Degree Days 18    
Moisture  
Dew Point 35 °F    
Average Humidity 70    
Maximum Humidity 90    
Minimum Humidity 34    
Precipitation  
Precipitation 0.00 in - - ()
Sea Level Pressure  
Sea Level Pressure 30.07 in    
Wind  
Wind Speed 1 mph ()    
Max Wind Speed 9 mph    
Max Gust Speed -    
Visibility 10.0 miles    
Events      
Averages and records for this station are not official NWS values.
T = Trace of Precipitation, MM = Missing Value Source: Averaged Metar Reports

Daily Weather History Graph

Daily Weather History Graph

Search for Another Location

Airport or City:

Astronomy

Oct. 17, 2019 Rise Set
Actual Time 7:04 AM CDT 6:14 PM CDT
Civil Twilight 6:37 AM CDT 6:40 PM CDT
Nautical Twilight 6:07 AM CDT 7:11 PM CDT
Astronomical Twilight 5:36 AM CDT 7:41 PM CDT
Moon 8:49 PM CDT (10/17) 10:32 AM CDT (10/17)
Length of Visible Light 12h 02m
Length of Day
11h 09m
Waning Gibbous, 86% of the Moon is Illuminated
Oct 17
Waning Gibbous
Oct 21
Last Quarter
Oct 27
New
Nov 4
First Quarter
Nov 12
Full

Hourly Weather History & Observations

Time (CDT) Temp. Windchill Dew Point Humidity Pressure Visibility Wind Dir Wind Speed Gust Speed Precip Events Conditions
12:15 AM 41.2 °F - 38.1 °F 89% 30.09 in 10.0 mi Calm Calm - N/A   Clear
12:35 AM 39.7 °F 37.6 °F 36.9 °F 89% 30.09 in 10.0 mi West 3.5 mph - N/A   Clear
12:55 AM 39.2 °F - 36.1 °F 89% 30.09 in 10.0 mi Calm Calm - N/A   Clear
1:15 AM 38.3 °F - 35.6 °F 90% 30.10 in 10.0 mi Calm Calm - N/A   Clear
1:35 AM 38.1 °F 35.7 °F 35.2 °F 89% 30.09 in 10.0 mi NW 3.5 mph - N/A   Clear
1:55 AM 38.8 °F 36.5 °F 36.0 °F 89% 30.09 in 10.0 mi NW 3.5 mph - N/A   Clear
2:15 AM 38.8 °F - 36.0 °F 89% 30.09 in 10.0 mi Calm Calm - N/A   Clear
2:35 AM 38.1 °F - 35.2 °F 89% 30.09 in 10.0 mi Calm Calm - N/A   Clear
2:55 AM 37.0 °F - 34.0 °F 89% 30.09 in 10.0 mi Calm Calm - N/A   Clear
3:15 AM 35.8 °F - 32.9 °F 89% 30.09 in 10.0 mi Calm Calm - N/A   Clear
3:35 AM 36.5 °F - 33.6 °F 89% 30.09 in 10.0 mi Calm Calm - N/A   Clear
3:55 AM 37.2 °F - 34.0 °F 88% 30.09 in 10.0 mi Calm Calm - N/A   Clear
4:15 AM 35.8 °F - 32.9 °F 89% 30.09 in 10.0 mi Calm Calm - N/A   Clear
4:35 AM 37.6 °F 34.0 °F 34.7 °F 89% 30.09 in 10.0 mi WNW 4.6 mph - N/A   Clear
4:55 AM 38.1 °F 35.7 °F 35.2 °F 89% 30.08 in 10.0 mi NW 3.5 mph - N/A   Clear
5:15 AM 37.8 °F 35.3 °F 34.9 °F 89% 30.08 in 10.0 mi NW 3.5 mph - N/A   Clear
5:35 AM 37.0 °F - 34.2 °F 89% 30.09 in 10.0 mi Calm Calm - N/A   Clear
5:55 AM 36.5 °F - 33.4 °F 89% 30.09 in 10.0 mi Calm Calm - N/A   Clear
6:15 AM 36.3 °F - 33.3 °F 89% 30.10 in 10.0 mi Calm Calm - N/A   Clear
6:35 AM 35.8 °F 33.0 °F 32.9 °F 89% 30.10 in 10.0 mi WSW 3.5 mph - N/A   Clear
6:55 AM 35.8 °F - 32.9 °F 89% 30.11 in 10.0 mi Calm Calm - N/A   Clear
7:15 AM 35.1 °F - 32.0 °F 89% 30.11 in 10.0 mi Calm Calm - N/A   Clear
7:35 AM 35.6 °F - 32.7 °F 89% 30.11 in 10.0 mi Calm Calm - N/A   Clear
7:55 AM 37.4 °F - 34.7 °F 90% 30.11 in 10.0 mi Calm Calm - N/A   Clear
8:15 AM 39.2 °F - 36.3 °F 89% 30.11 in 10.0 mi Calm Calm - N/A   Clear
8:35 AM 41.5 °F 39.6 °F 38.5 °F 89% 30.12 in 10.0 mi WSW 3.5 mph - N/A   Clear
8:55 AM 44.1 °F - 39.9 °F 85% 30.13 in 10.0 mi Calm Calm - N/A   Clear
9:15 AM 45.5 °F - 39.6 °F 80% 30.13 in 10.0 mi Calm Calm - N/A   Clear
9:35 AM 47.8 °F - 39.2 °F 72% 30.14 in 10.0 mi NW 3.5 mph - N/A   Clear
9:55 AM 49.3 °F - 38.3 °F 66% 30.13 in 10.0 mi NNW 3.5 mph - N/A   Clear
10:15 AM 50.9 °F - 33.8 °F 52% 30.14 in 10.0 mi NNW 3.5 mph - N/A   Clear
10:35 AM 51.8 °F - 34.2 °F 51% 30.14 in 10.0 mi NW 4.6 mph - N/A   Clear
10:55 AM 52.7 °F - 34.0 °F 49% 30.13 in 10.0 mi NW 4.6 mph - N/A   Scattered Clouds
11:15 AM 53.6 °F - 32.4 °F 44% 30.12 in 10.0 mi NW 8.1 mph - N/A   Scattered Clouds
11:35 AM 54.1 °F - 31.8 °F 43% 30.12 in 10.0 mi NNW 6.9 mph - N/A   Scattered Clouds
11:55 AM 55.4 °F - 32.5 °F 42% 30.11 in 10.0 mi West 5.8 mph - N/A   Scattered Clouds
12:15 PM 55.0 °F - 32.0 °F 42% 30.10 in 10.0 mi NNW 5.8 mph - N/A   Scattered Clouds
12:35 PM 56.1 °F - 32.4 °F 41% 30.09 in 10.0 mi NW 4.6 mph - N/A   Scattered Clouds
12:55 PM 57.2 °F - 32.9 °F 40% 30.08 in 10.0 mi NW 9.2 mph - N/A   Clear
1:15 PM 56.8 °F - 31.6 °F 38% 30.07 in 10.0 mi Calm Calm - N/A   Clear
1:35 PM 57.6 °F - 32.2 °F 38% 30.07 in 10.0 mi Calm Calm - N/A   Clear
1:55 PM 58.5 °F - 32.2 °F 37% 30.06 in 10.0 mi Calm Calm - N/A   Clear
2:15 PM 59.4 °F - 31.8 °F 35% 30.06 in 10.0 mi WSW 4.6 mph - N/A   Clear
2:35 PM 58.8 °F - 30.6 °F 34% 30.05 in 10.0 mi SSW 3.5 mph - N/A   Clear
2:55 PM 58.8 °F - 30.9 °F 35% 30.04 in 10.0 mi Calm Calm - N/A   Clear
3:15 PM 59.9 °F - 31.5 °F 34% 30.04 in 10.0 mi NW 4.6 mph - N/A   Clear
3:35 PM 59.2 °F - 31.6 °F 35% 30.04 in 10.0 mi NW 4.6 mph - N/A   Clear
3:55 PM 59.7 °F - 31.6 °F 35% 30.03 in 10.0 mi Calm Calm - N/A   Clear
4:35 PM 60.1 °F - 31.8 °F 34% 30.03 in 10.0 mi WNW 4.6 mph - N/A   Clear
4:55 PM 59.9 °F - 32.0 °F 35% 30.02 in 10.0 mi West 3.5 mph - N/A   Clear
5:15 PM 59.4 °F - 32.2 °F 36% 30.03 in 10.0 mi NNW 4.6 mph - N/A   Clear
5:35 PM 58.5 °F - 32.2 °F 37% 30.02 in 10.0 mi Calm Calm - N/A   Clear
5:55 PM 57.9 °F - 32.2 °F 38% 30.02 in 10.0 mi Calm Calm - N/A   Clear
6:15 PM 55.6 °F - 33.8 °F 44% 30.02 in 10.0 mi Calm Calm - N/A   Clear
6:35 PM 53.1 °F - 35.2 °F 51% 30.02 in 10.0 mi Calm Calm - N/A   Clear
6:55 PM 49.5 °F - 36.5 °F 61% 30.03 in 10.0 mi Calm Calm - N/A   Clear
7:15 PM 47.3 °F - 37.2 °F 68% 30.03 in 10.0 mi Calm Calm - N/A   Clear
7:35 PM 46.4 °F - 39.4 °F 77% 30.04 in 10.0 mi Calm Calm - N/A   Clear
7:55 PM 44.2 °F - 39.2 °F 82% 30.04 in 10.0 mi Calm Calm - N/A   Clear
8:15 PM 43.5 °F - 39.0 °F 84% 30.04 in 10.0 mi Calm Calm - N/A   Clear
8:35 PM 43.2 °F - 39.0 °F 85% 30.04 in 10.0 mi Calm Calm - N/A   Clear
8:55 PM 42.3 °F - 38.7 °F 87% 30.04 in 10.0 mi Calm Calm - N/A   Clear
9:15 PM 41.0 °F - 38.1 °F 89% 30.04 in 10.0 mi Calm Calm - N/A   Clear
9:35 PM 40.5 °F - 37.4 °F 89% 30.04 in 10.0 mi Calm Calm - N/A   Clear
9:55 PM 41.0 °F - 37.9 °F 89% 30.04 in 10.0 mi Calm Calm - N/A   Clear
10:15 PM 40.1 °F - 37.0 °F 89% 30.05 in 10.0 mi Calm Calm - N/A   Clear
10:35 PM 39.2 °F - 36.1 °F 89% 30.05 in 10.0 mi Calm Calm - N/A   Clear
10:55 PM 39.9 °F - 36.9 °F 89% 30.04 in 10.0 mi Calm Calm - N/A   Clear
11:15 PM 38.3 °F - 35.6 °F 90% 30.04 in 10.0 mi Calm Calm - N/A   Clear
11:35 PM 39.7 °F - 36.9 °F 89% 30.04 in 10.0 mi Calm Calm - N/A   Clear
11:55 PM 36.5 °F - 33.8 °F 90% 30.04 in 10.0 mi Calm Calm - N/A   Clear